Previsão horária em Allmend

Hoje, 22 Janeiro, Sexta-feira

Tempo Temperatura Precipitação Vento Pressão Humidade
00:00 +1°C° 0.1 mm 2 m/s 670 mmHg 83%
01:00 +1°C° 0.1 mm 3 m/s 670 mmHg 84%
02:00 +2°C° 0.7 mm 2 m/s 669 mmHg 86%
03:00 +2°C° 0.7 mm 2 m/s 669 mmHg 88%
04:00 +1°C° 0.7 mm 2 m/s 669 mmHg 89%
05:00 +1°C° 0.1 mm 2 m/s 668 mmHg 88%
06:00 +1°C° 0.1 mm 2 m/s 668 mmHg 86%
07:00 +1°C° 0.1 mm 2 m/s 668 mmHg 85%
08:00 +2°C° 0.1 mm 2 m/s 668 mmHg 85%
09:00 +2°C° 0.1 mm 2 m/s 667 mmHg 85%
10:00 +3°C° 0.1 mm 2 m/s 667 mmHg 85%
11:00 +4°C° 0 mm 2 m/s 667 mmHg 87%
12:00 +5°C° 0 mm 1 m/s 666 mmHg 88%
13:00 +6°C° 0 mm 1 m/s 666 mmHg 90%
14:00 +6°C° 0 mm 1 m/s 665 mmHg 91%
15:00 +5°C° 0 mm 1 m/s 664 mmHg 92%
16:00 +5°C° 0 mm 1 m/s 664 mmHg 93%
17:00 +4°C° 0.2 mm 1 m/s 664 mmHg 93%
18:00 +3°C° 0.2 mm 1 m/s 663 mmHg 93%
19:00 +3°C° 0.2 mm 1 m/s 663 mmHg 93%
20:00 +2°C° 1.4 mm 1 m/s 663 mmHg 95%
21:00 +2°C° 1.4 mm 1 m/s 664 mmHg 97%
22:00 +2°C° 1.4 mm 1 m/s 664 mmHg 98%
23:00 +1°C° 1.8 mm 2 m/s 664 mmHg 98%

Amanhã, 23 Janeiro, Sábado

Tempo Temperatura Precipitação Vento Pressão Humidade
00:00 0°C° 1.8 mm 3 m/s 665 mmHg 98%
01:00 -2°C° 1.8 mm 4 m/s 665 mmHg 97%
02:00 -1°C° 1.2 mm 3 m/s 666 mmHg 97%
03:00 -2°C° 1.2 mm 3 m/s 666 mmHg 97%
04:00 -3°C° 1.2 mm 2 m/s 667 mmHg 96%
05:00 -3°C° 0.1 mm 2 m/s 667 mmHg 95%
06:00 -2°C° 0.1 mm 1 m/s 667 mmHg 93%
07:00 -2°C° 0.1 mm 1 m/s 667 mmHg 91%
08:00 -2°C° 0 mm 1 m/s 667 mmHg 89%
09:00 -1°C° 0 mm 1 m/s 667 mmHg 87%
10:00 -1°C° 0 mm 1 m/s 667 mmHg 85%
11:00 0°C° 0 mm 1 m/s 667 mmHg 84%
12:00 +1°C° 0 mm 1 m/s 666 mmHg 84%
13:00 +2°C° 0 mm 1 m/s 666 mmHg 83%
14:00 +1°C° 0 mm 1 m/s 666 mmHg 85%
15:00 +1°C° 0 mm 1 m/s 665 mmHg 88%
16:00 0°C° 0 mm 0 m/s 665 mmHg 90%
17:00 0°C° 0 mm 1 m/s 665 mmHg 87%
18:00 -2°C° 0 mm 1 m/s 665 mmHg 85%
19:00 -3°C° 0 mm 1 m/s 665 mmHg 83%
20:00 -3°C° 0 mm 1 m/s 665 mmHg 82%
21:00 -3°C° 0 mm 1 m/s 665 mmHg 82%
22:00 -3°C° 0 mm 1 m/s 666 mmHg 81%
23:00 -4°C° 0.6 mm 2 m/s 666 mmHg 86%

Depois de amanhã, 24 Janeiro, Domingo

Tempo Temperatura Precipitação Vento Pressão Humidade
00:00 -4°C° 0.6 mm 2 m/s 666 mmHg 90%
01:00 -5°C° 0.6 mm 3 m/s 667 mmHg 94%
02:00 -5°C° 0.4 mm 3 m/s 667 mmHg 94%
03:00 -4°C° 0.4 mm 2 m/s 667 mmHg 95%
04:00 -4°C° 0.4 mm 2 m/s 667 mmHg 95%
05:00 -5°C° 0.3 mm 2 m/s 668 mmHg 95%
06:00 -5°C° 0.3 mm 2 m/s 668 mmHg 95%
07:00 -4°C° 0.3 mm 1 m/s 669 mmHg 95%
08:00 -3°C° 0 mm 1 m/s 669 mmHg 93%
09:00 -3°C° 0 mm 1 m/s 669 mmHg 92%
10:00 -2°C° 0 mm 1 m/s 670 mmHg 90%
11:00 -1°C° 0 mm 1 m/s 669 mmHg 86%
12:00 0°C° 0 mm 1 m/s 669 mmHg 82%
13:00 0°C° 0 mm 1 m/s 669 mmHg 78%
14:00 0°C° 0 mm 1 m/s 669 mmHg 82%
15:00 0°C° 0 mm 1 m/s 668 mmHg 85%
16:00 0°C° 0 mm 1 m/s 668 mmHg 89%
17:00 -1°C° 0 mm 1 m/s 668 mmHg 89%
18:00 -2°C° 0 mm 1 m/s 669 mmHg 88%
19:00 -5°C° 0 mm 2 m/s 669 mmHg 88%
20:00 -5°C° 0.3 mm 2 m/s 669 mmHg 90%
21:00 -5°C° 0.3 mm 2 m/s 669 mmHg 91%
22:00 -5°C° 0.3 mm 2 m/s 669 mmHg 93%
23:00 -5°C° 0.6 mm 2 m/s 669 mmHg 94%

25 Janeiro, Segunda-feira

Tempo Temperatura Precipitação Vento Pressão Humidade
00:00 -5°C° 0.6 mm 2 m/s 669 mmHg 94%
01:00 -5°C° 0.6 mm 2 m/s 670 mmHg 95%
02:00 -5°C° 0.8 mm 2 m/s 670 mmHg 95%
03:00 -6°C° 0.8 mm 3 m/s 671 mmHg 95%
04:00 -6°C° 0.8 mm 3 m/s 671 mmHg 94%
05:00 -6°C° 0.4 mm 3 m/s 672 mmHg 94%
06:00 -7°C° 0.4 mm 3 m/s 672 mmHg 94%
07:00 -8°C° 0.4 mm 3 m/s 673 mmHg 94%
08:00 -7°C° 0.4 mm 3 m/s 674 mmHg 94%
09:00 -7°C° 0.4 mm 3 m/s 675 mmHg 93%
10:00 -6°C° 0.4 mm 3 m/s 675 mmHg 93%
11:00 -5°C° 0.2 mm 3 m/s 676 mmHg 89%
12:00 -5°C° 0.2 mm 4 m/s 676 mmHg 85%
13:00 -4°C° 0.2 mm 4 m/s 677 mmHg 81%
14:00 -4°C° 0.1 mm 3 m/s 677 mmHg 83%
15:00 -5°C° 0.1 mm 3 m/s 677 mmHg 84%
16:00 -5°C° 0.1 mm 3 m/s 677 mmHg 86%
17:00 -5°C° 0.2 mm 3 m/s 677 mmHg 88%
18:00 -6°C° 0.2 mm 3 m/s 678 mmHg 90%
19:00 -6°C° 0.2 mm 3 m/s 678 mmHg 92%
20:00 -7°C° 0.2 mm 3 m/s 678 mmHg 92%
21:00 -6°C° 0.2 mm 2 m/s 679 mmHg 92%
22:00 -6°C° 0.2 mm 2 m/s 679 mmHg 91%
23:00 -6°C° 0.1 mm 2 m/s 679 mmHg 91%

26 Janeiro, Terça-feira

Tempo Temperatura Precipitação Vento Pressão Humidade
00:00 -6°C° 0.1 mm 2 m/s 680 mmHg 91%
01:00 -6°C° 0.1 mm 2 m/s 680 mmHg 90%
02:00 -6°C° 0.1 mm 2 m/s 680 mmHg 90%
03:00 -6°C° 0.1 mm 2 m/s 680 mmHg 90%
04:00 -6°C° 0.1 mm 2 m/s 680 mmHg 89%
05:00 -6°C° 0.1 mm 2 m/s 680 mmHg 90%
06:00 -6°C° 0.1 mm 2 m/s 680 mmHg 91%
07:00 -6°C° 0.1 mm 2 m/s 680 mmHg 92%
08:00 -6°C° 0 mm 2 m/s 681 mmHg 92%
09:00 -5°C° 0 mm 2 m/s 681 mmHg 91%
10:00 -4°C° 0 mm 2 m/s 681 mmHg 90%
11:00 -3°C° 0 mm 2 m/s 681 mmHg 89%
12:00 -2°C° 0 mm 2 m/s 681 mmHg 88%
13:00 -2°C° 0 mm 2 m/s 681 mmHg 87%
14:00 0°C° 0 mm 1 m/s 681 mmHg 88%
15:00 0°C° 0 mm 1 m/s 681 mmHg 89%
16:00 0°C° 0 mm 1 m/s 681 mmHg 90%
17:00 0°C° 0 mm 1 m/s 681 mmHg 88%
18:00 -1°C° 0 mm 1 m/s 681 mmHg 87%
19:00 -1°C° 0 mm 1 m/s 680 mmHg 85%
20:00 -1°C° 0.2 mm 1 m/s 681 mmHg 88%
21:00 -3°C° 0.2 mm 2 m/s 681 mmHg 90%
22:00 -3°C° 0.2 mm 2 m/s 681 mmHg 93%
23:00 -3°C° 0.2 mm 2 m/s 680 mmHg 93%

27 Janeiro, Quarta-feira

Tempo Temperatura Precipitação Vento Pressão Humidade
00:00 -2°C° 0.2 mm 2 m/s 680 mmHg 92%
01:00 -2°C° 0.2 mm 2 m/s 680 mmHg 92%
02:00 -1°C° 0.3 mm 2 m/s 680 mmHg 94%
03:00 0°C° 0.3 mm 3 m/s 679 mmHg 95%
04:00 0°C° 0.3 mm 3 m/s 679 mmHg 96%
05:00 +1°C° 0.6 mm 3 m/s 679 mmHg 97%
06:00 +1°C° 0.6 mm 3 m/s 679 mmHg 97%
07:00 0°C° 0.6 mm 4 m/s 680 mmHg 98%
08:00 0°C° 0.8 mm 4 m/s 680 mmHg 98%
09:00 +1°C° 0.8 mm 3 m/s 681 mmHg 98%
10:00 +1°C° 0.8 mm 3 m/s 681 mmHg 98%
11:00 +1°C° 0.3 mm 3 m/s 681 mmHg 97%
12:00 +1°C° 0.3 mm 3 m/s 682 mmHg 96%
13:00 +2°C° 0.3 mm 3 m/s 682 mmHg 95%
14:00 +2°C° 0.1 mm 2 m/s 682 mmHg 95%
15:00 +2°C° 0.1 mm 2 m/s 682 mmHg 95%
16:00 +2°C° 0.1 mm 2 m/s 682 mmHg 95%
17:00 +1°C° 0 mm 2 m/s 683 mmHg 92%
18:00 -1°C° 0 mm 2 m/s 683 mmHg 89%
19:00 -2°C° 0 mm 2 m/s 683 mmHg 85%
20:00 -2°C° 0 mm 2 m/s 683 mmHg 82%
21:00 -2°C° 0 mm 2 m/s 683 mmHg 78%
22:00 -2°C° 0 mm 2 m/s 683 mmHg 74%
23:00 -2°C° 0 mm 2 m/s 683 mmHg 74%
Mostrar mais

Necessitamos do seu Consentimento

A Meteoprog e os seus Fornecedores de Serviços podem armazenar e aceder a dados pessoais como cookies, identificadores do dispositivo ou outras tecnologias semelhantes existentes no seu dispositivo e processar estes dados para personalizar conteúdos e anúncios, assim como funcionalidades nas redes sociais e análise de tráfego.

  • Armazenar e/ou aceder a informações no seu dispositivo

    Os cookies, identificadores do dispositivo ou outras informações podem ser armazenados ou acedidos no seu dispositivo, para os fins acima indicados.

  • Anúncios e conteúdos personalizados, medição de anúncios e conteúdos, dados sobre o público-alvo e desenvolvimento de produtos

    Os anúncios e os conteúdos podem ser personalizados com base num perfil. Podem ser adicionados dados adicionais para uma maior personalização dos anúncios e dos conteúdos. A eficácia dos anúncios e dos conteúdos pode ser medida. Podem ser obtidas informações sobre o público que visualizou os anúncios e os conteúdos. Estes dados podem ser usados para desenvolver ou melhorar sistemas, softwares ou a experiência do utilizador.

Ao clicar em "Eu concordo”, permitirá o uso de cookies, identificadores do dispositivo e web beacons mencionados ou outras tecnologias semelhantes. As configurações do navegador do seu dispositivo podem ser alteradas.

Para certos fins, podem ser invocados interesses legítimos ao invés de consentimento. Pode ler mais informação sobre este assunto na nossa Política de Privacidade e Cookies.